STSAT-3

Last updated on Wed Jul 02 2025 00:03:30 GMT+0000 (Coordinated Universal Time)

1 39422U 13066G 25182.54470292 .00003145 00000+0 25750-3 0 9991 2 39422 97.5673 155.0709 0019794 149.7043 210.5330 14.99864316631593
UTC large
Height (km)
Speed (km/s)
/
Latitude / Longitude
Inclination (degrees)
Orbital Period (minutes)
Azimuth
Elevation
Range (km)
Doppler Factor

Next 0 passes for location: London (51.5072 / 0.1276)

Sorry there are no passes over London.